Weather History for KI39 - December, 2013

Change the Weather History Date:

Sunday, December 8, 2013

  Actual Average (KLOZ) Record (KLOZ)
Temperature  
Mean Temperature 32 °F 40 °F  
Max Temperature 37 °F 50 °F 71 °F (1978)
Min Temperature 26 °F 31 °F 11 °F (1958)
Degree Days  
Heating Degree Days 34 25  
Month to date heating degree days 191  
Since 1 July heating degree days 1021  
Cooling Degree Days 0 0  
Month to date cooling degree days 0  
Moisture  
Dew Point 30 °F    
Average Humidity 93    
Maximum Humidity 100    
Minimum Humidity 80    
Precipitation  
Precipitation 0.00 in 0.14 in 3.55 in (1978)
Month to date precipitation 1.15  
Sea Level Pressure  
Sea Level Pressure 30.18 in    
Wind  
Wind Speed 5 mph (ENE)    
Max Wind Speed 12 mph    
Max Gust Speed 17 mph    
Visibility 4 miles    
Events      
T = Trace of Precipitation, MM = Missing Value Source: NWS Daily Summary

Daily Weather History Graph

Daily Weather History Graph

Search for Another Location

Airport or City:

Trip Planner

Search our weather history database for the weather conditions in past years. The results will help you decide how hot, cold, wet, or windy it might be!

Date:

Astronomy

Dec. 08, 2013 Rise Set
Actual Time 7:40 AM EST 5:18 PM EST
Civil Twilight 7:10 AM EST 5:47 PM EST
Nautical Twilight 6:38 AM EST 6:20 PM EST
Astronomical Twilight 6:06 AM EST 6:52 PM EST
Moon 12:05 PM EST (12/8) No Moon Set
Length of Visible Light 10h 36m
Length of Day
9h 38m
Waxing Crescent, 40% of the Moon is Illuminated
Dec 8
Waxing Crescent
Dec 9
First Quarter
Dec 17
Full
Dec 25
Last Quarter
Jan 1
New

Hourly Weather History & Observations

Time (EST) Temp. Windchill Dew Point Humidity Pressure Visibility Wind Dir Wind Speed Gust Speed Precip Events Conditions
12:15 AM 26.6 °F 16.2 °F 23.0 °F 86% 30.40 in 10.0 mi ENE 11.5 mph 17.3 mph N/A   Mostly Cloudy
12:35 AM 26.6 °F 17.5 °F 23.0 °F 86% 30.41 in 10.0 mi ENE 9.2 mph 16.1 mph N/A   Mostly Cloudy
12:55 AM 26.6 °F 17.5 °F 23.0 °F 86% 30.42 in 10.0 mi NE 9.2 mph - N/A   Overcast
1:15 AM 26.6 °F 17.5 °F 23.0 °F 86% 30.38 in 10.0 mi ENE 9.2 mph - N/A   Overcast
1:35 AM 26.6 °F 18.2 °F 23.0 °F 86% 30.38 in 10.0 mi ENE 8.1 mph - N/A   Overcast
1:55 AM 26.6 °F 19.1 °F 23.0 °F 86% 30.37 in 10.0 mi ENE 6.9 mph 10.4 mph N/A   Overcast
2:15 AM 26.6 °F 19.1 °F 23.0 °F 86% 30.37 in 10.0 mi NE 6.9 mph - N/A   Overcast
2:35 AM 26.6 °F 16.2 °F 23.0 °F 86% 30.35 in 10.0 mi East 11.5 mph - N/A   Overcast
2:55 AM 28.4 °F 19.7 °F 23.0 °F 80% 30.35 in 10.0 mi ENE 9.2 mph - N/A   Overcast
3:15 AM 28.4 °F 20.4 °F 23.0 °F 80% 30.33 in 10.0 mi ENE 8.1 mph - N/A   Overcast
3:35 AM 28.4 °F 19.7 °F 23.0 °F 80% 30.32 in 10.0 mi East 9.2 mph - N/A   Overcast
3:55 AM 28.4 °F 20.4 °F 23.0 °F 80% 30.33 in 10.0 mi East 8.1 mph - N/A   Overcast
4:15 AM 28.4 °F 19.7 °F 23.0 °F 80% 30.31 in 10.0 mi ENE 9.2 mph - N/A   Overcast
4:35 AM 28.4 °F 21.2 °F 24.8 °F 86% 30.33 in 10.0 mi ENE 6.9 mph - N/A   Overcast
4:55 AM 28.4 °F 20.4 °F 24.8 °F 86% 30.31 in 5.0 mi NE 8.1 mph - N/A   Overcast
5:15 AM 28.4 °F 19.7 °F 26.6 °F 93% 30.29 in 5.0 mi ENE 9.2 mph - N/A   Overcast
5:35 AM 28.4 °F 21.2 °F 26.6 °F 93% 30.29 in 5.0 mi ENE 6.9 mph - N/A   Overcast
5:55 AM 28.4 °F 21.2 °F 26.6 °F 93% 30.29 in 4.0 mi NE 6.9 mph - N/A   Overcast
6:15 AM 28.4 °F 19.1 °F 26.6 °F 93% 30.28 in 4.0 mi ENE 10.4 mph - N/A   Overcast
6:35 AM 30.2 °F 22.6 °F 26.6 °F 86% 30.27 in 4.0 mi ENE 8.1 mph - N/A   Overcast
6:55 AM 30.2 °F 23.4 °F 28.4 °F 93% 30.26 in 3.0 mi East 6.9 mph - N/A   Overcast
7:15 AM 30.2 °F 23.4 °F 28.4 °F 93% 30.25 in 3.0 mi East 6.9 mph - N/A   Overcast
7:35 AM 30.2 °F 24.3 °F 28.4 °F 93% 30.25 in 4.0 mi East 5.8 mph - N/A   Overcast
7:55 AM 30.2 °F 26.7 °F 28.4 °F 93% 30.25 in 3.0 mi East 3.5 mph - N/A   Overcast
8:15 AM 30.2 °F - 28.4 °F 93% 30.23 in 5.0 mi Calm Calm - N/A   Overcast
8:35 AM 30.2 °F 26.7 °F 30.2 °F 100% 30.24 in 4.0 mi ENE 3.5 mph - N/A   Overcast
8:55 AM 30.2 °F 26.7 °F 30.2 °F 100% 30.20 in 3.0 mi East 3.5 mph - N/A   Overcast
9:15 AM 32.0 °F 27.5 °F 30.2 °F 93% 30.19 in 4.0 mi East 4.6 mph - N/A   Overcast
9:35 AM 32.0 °F - 30.2 °F 93% 30.20 in 7.0 mi Calm Calm - N/A   Overcast
9:55 AM 32.0 °F - 30.2 °F 93% 30.24 in 2.5 mi Calm Calm - N/A   Overcast
10:15 AM 32.0 °F - 30.2 °F 93% 30.24 in 1.0 mi Calm Calm - N/A   Overcast
10:35 AM 32.0 °F - 30.2 °F 93% 30.24 in 1.8 mi Calm Calm - N/A   Overcast
10:55 AM 32.0 °F - 30.2 °F 93% 30.23 in 5.0 mi Calm Calm - N/A   Overcast
11:15 AM 32.0 °F - 30.2 °F 93% 30.22 in 4.0 mi Calm Calm - N/A   Overcast
11:35 AM 32.0 °F - 30.2 °F 93% 30.22 in 4.0 mi Calm Calm - N/A   Overcast
11:55 AM 32.0 °F - 30.2 °F 93% 30.20 in 2.0 mi Calm Calm - N/A   Overcast
12:15 PM 32.0 °F - 30.2 °F 93% 30.19 in 3.0 mi Calm Calm - N/A   Overcast
12:35 PM 32.0 °F - 30.2 °F 93% 30.17 in 5.0 mi Calm Calm - N/A   Overcast
12:55 PM 32.0 °F - 30.2 °F 93% 30.15 in 10.0 mi Calm Calm - N/A   Overcast
1:15 PM 32.0 °F - 32.0 °F 100% 30.14 in 7.0 mi Calm Calm - N/A   Overcast
1:35 PM 32.0 °F - 32.0 °F 100% 30.13 in 2.5 mi Calm Calm - N/A   Overcast
2:15 PM 32.0 °F - 32.0 °F 100% 30.10 in 1.8 mi Calm Calm - N/A   Overcast
2:35 PM 32.0 °F - 32.0 °F 100% 30.08 in 1.5 mi Calm Calm - N/A   Overcast
2:55 PM 32.0 °F - 32.0 °F 100% 30.09 in 1.2 mi Calm Calm - N/A   Overcast
3:15 PM 32.0 °F - 32.0 °F 100% 30.08 in 1.2 mi Calm Calm - N/A   Overcast
3:35 PM 32.0 °F - 32.0 °F 100% 30.08 in 1.5 mi Calm Calm - N/A   Overcast
3:55 PM 32.0 °F - 32.0 °F 100% 30.08 in 2.0 mi Calm Calm - N/A   Overcast
4:15 PM 32.0 °F - 32.0 °F 100% 30.08 in 1.2 mi Calm Calm - N/A   Overcast
4:35 PM 32.0 °F - 32.0 °F 100% 30.08 in 0.2 mi Calm Calm - N/A   Overcast
4:55 PM 32.0 °F - 32.0 °F 100% 30.08 in 0.5 mi Calm Calm - N/A   Overcast
5:15 PM 32.0 °F - 32.0 °F 100% 30.08 in 0.8 mi Calm Calm - N/A   Overcast
5:35 PM 32.0 °F - 32.0 °F 100% 30.07 in 1.2 mi Calm Calm - N/A   Overcast
5:55 PM 32.0 °F - 32.0 °F 100% 30.07 in 1.2 mi Calm Calm - N/A   Overcast
6:15 PM 32.0 °F - 32.0 °F 100% 30.06 in 1.0 mi Calm Calm - N/A   Overcast
6:35 PM 32.0 °F - 32.0 °F 100% 30.06 in 1.5 mi Calm Calm - N/A   Overcast
6:55 PM 32.0 °F - 32.0 °F 100% 30.05 in 1.2 mi Calm Calm - N/A   Overcast
7:15 PM 33.8 °F - 32.0 °F 93% 30.05 in 1.8 mi Calm Calm - N/A   Overcast
7:35 PM 33.8 °F 30.8 °F 32.0 °F 93% 30.03 in 1.0 mi SE 3.5 mph - N/A   Overcast
7:55 PM 33.8 °F - 32.0 °F 93% 30.03 in 2.5 mi Calm Calm - N/A   Overcast
8:15 PM 33.8 °F - 33.8 °F 100% 30.04 in 5.0 mi Calm Calm - N/A   Overcast
8:35 PM 33.8 °F - 33.8 °F 100% 30.03 in 7.0 mi Calm Calm - N/A   Overcast
8:55 PM 33.8 °F - 32.0 °F 93% 30.03 in 3.0 mi Calm Calm - N/A   Overcast
9:15 PM 35.6 °F - 33.8 °F 93% 30.05 in 4.0 mi Calm Calm - N/A   Overcast
9:35 PM 35.6 °F - 33.8 °F 93% 30.03 in 3.0 mi Calm Calm - N/A   Overcast
9:55 PM 35.6 °F - 33.8 °F 93% 30.02 in 4.0 mi Calm Calm - N/A   Overcast
10:15 PM 35.6 °F - 33.8 °F 93% 30.02 in 3.0 mi Calm Calm - N/A   Overcast
10:35 PM 35.6 °F - 33.8 °F 93% 30.02 in 2.0 mi Calm Calm - N/A   Overcast
10:55 PM 35.6 °F 31.7 °F 33.8 °F 93% 30.05 in 2.5 mi West 4.6 mph - N/A   Overcast
11:15 PM 35.6 °F 31.7 °F 35.6 °F 100% 30.03 in 2.5 mi West 4.6 mph - N/A   Overcast
11:35 PM 37.4 °F 33.8 °F 35.6 °F 93% 30.03 in 3.0 mi West 4.6 mph - N/A   Overcast
11:55 PM 37.4 °F 34.9 °F 35.6 °F 93% 30.03 in 3.0 mi West 3.5 mph - N/A   Overcast